CZ-4B DEB (46484 NORAD) Tracking and Keplerian Element Data

This shows tracking and keplerian element data for the satellite.

Feedback or suggestion? Click here.




ElementValue
Catalog46484
NameCZ-4B DEB
Epoch Orbit424
Epoch Day300.62457049
Epoch Year2020
RAAN15.31
Inclination97.8783
Eccentricity0.0050619
Argument of Perigee318.5485
Mean Anonmoly41.189
Mean Motion14.78575678
Decay Rate2.76E-06
L11 46484U 20067G 20300.62457049 .00000276 00000-0 44188-4 0 9997
L22 46484 97.8783 15.3100 0050619 318.5485 41.1890 14.78575678 4246

Live tracking and technical data element details for CZ-4B DEB (NORAD 46484). CZ-4B DEB can be tracked NOW for your location showing map with azimuth and elevation plus other details from your city location.

Track the satellite on the map from your city or location and see movement details for azimuth, elevation, latitude, longitude, range, height, and movement on the map or in text.







IsCatalogInMostPopularTable: catalog: 46484, numindb: 4
Update: records affected: 1



GetName: 46484 CZ-4B DEB

Hit Count: updated at: Fri, 30 Oct 2020 02:22:49 GMT